Home   Weather   Los Angeles   Past weeks
Flag for USA

Past Weather in Los Angeles, California, USA — October 2015

Now
65 °F

Partly sunny.


Feels Like: 65 °F
Forecast: 73 / 60 °F
Wind: No wind

Location: Los Angeles / USC Campus Downtown

Current Time: May 30, 2020 at 9:22:18 am

Latest Report: May 30, 2020 at 7:52 am


Visibility: 10 mi

Pressure: 29.99 "Hg

Humidity: 68%

Dew Point: 54 °F

Location of Los AngelesLocation

October 2015 Weather in Los Angeles — Graph

°F

High & Low Weather Summary for October 2015

 TemperatureHumidityPressure
High100 °F (Oct 10, 12:47 pm)91% (Oct 5, 8:47 pm)30.09 "Hg (Oct 5, 8:47 pm)
Low61 °F (Oct 26, 5:47 am)11% (Oct 30, 12:47 pm)29.54 "Hg (Oct 3, 5:47 pm)
Average74 °F60%29.88 "Hg
* Reported Oct 1 12:47 am — Oct 31 11:47 pm, Los Angeles. Weather by CustomWeather, © 2020

Note: Actual official high and low records may vary slightly from our data, if they occured in-between our weather recording intervals... More about our weather records

Los Angeles Weather History for October 1, 2015

Scroll right to see more
 ConditionsComfort  
Time TempWeatherWind HumidityBarometerVisibility
12:47 am
Thu, Oct 1
72 °FClear.No wind66%29.82 "Hg10 mi
1:47 am71 °FClear.No wind68%29.83 "Hg10 mi
2:47 am72 °FClear.No wind68%29.82 "Hg10 mi
3:47 am71 °FClear.No wind73%29.83 "Hg10 mi
4:47 am71 °FClear.No wind76%29.83 "Hg10 mi
5:47 am70 °FClear.5 mph81%29.85 "Hg10 mi
6:47 am70 °FClear.No wind79%29.86 "Hg10 mi
7:47 am70 °FSunny.No wind79%29.89 "Hg7 mi
8:47 am74 °FSunny.No wind69%29.90 "Hg10 mi
9:47 am78 °FSunny.No wind58%29.91 "Hg10 mi
10:47 am81 °FSunny.3 mph54%29.90 "Hg10 mi
11:47 am84 °FSunny.3 mph45%29.89 "Hg10 mi
12:47 pm86 °FSunny.No wind42%29.88 "Hg10 mi
1:47 pm80 °FSunny.8 mph56%29.88 "Hg10 mi
3:47 pm80 °FSunny.6 mph45%29.87 "Hg10 mi
4:47 pm80 °FSunny.5 mph41%29.86 "Hg10 mi
5:47 pm77 °FSunny.8 mph52%29.86 "Hg10 mi
6:47 pm74 °FSunny.5 mph67%29.87 "Hg10 mi
7:47 pm73 °FClear.No wind69%29.88 "Hg10 mi
8:47 pm73 °FClear.3 mph66%29.89 "Hg10 mi
9:47 pm72 °FClear.No wind68%29.89 "Hg10 mi
10:47 pm71 °FClear.No wind73%29.90 "Hg10 mi
11:47 pm71 °FClear.No wind71%29.90 "Hg10 mi
Weather by CustomWeather, © 2020

See weather overview

Advertising